Location: Asbacherhof
(48.8543°N, 10.7903°E)
Time: 22:53:48
(UTC+00:00)

Cosmos 2366 rocket - Pass Details

Date: 26 May 2022
Orbit: 955 x 997 km, 82.9° (Epoch: 26 June)

Event Time Altitude Azimuth Distance (km) Brightness Sun altitude
Rises 02:36:55 0° 349° (N) 3,646 7.5 -6.7°
Reaches altitude 10° 02:39:25 10° 349° (NNW) 2,697 6.8 -6.4°
Maximum altitude 02:45:34 79° 264° (W) 983 4.0 -5.7°
Drops below altitude 10° 02:51:44 10° 179° (S) 2,697 6.0 -4.9°
Sets 02:54:14 0° 178° (S) 3,645 6.6 -4.6°
